GW5556 Weather Reports


time (UTC)temp
F
wind
direction
speed
knots
gust
knots
rain 1hr
in
rain 24hr
in
rain mn
in
humidity
%
barometer
mb
20260506061516 63 225 1.7 9.6 0.00 0.00 0.00 51 1011.6
20260506044503 60 246 0.9 4.3 0.00 0.00 0.00 51 1011.7
20260506043003 60 215 0.9 5.2 0.00 0.00 0.00 52 1011.7
20260506041503 59 225 0.0 2.6 0.00 0.00 0.00 53 1011.9
20260506040014 59 230 0.0 2.6 0.00 0.00 0.00 53 1011.7
20260506034520 59 227 0.9 2.6 0.00 0.00 0.00 52 1011.7
20260506033005 60 227 0.9 1.7 0.00 0.00 0.00 50 1011.6
20260506031506 61 227 0.0 1.7 0.00 0.00 0.00 47 1011.9
20260506030007 62 227 0.0 1.7 0.00 0.00 0.00 46 1012.1
20260506024510 63 227 0.9 2.6 0.00 0.00 0.00 44 1012.1
20260506023016 64 227 0.0 2.6 0.00 0.00 0.00 42 1012.3
20260506021503 65 234 0.0 3.5 0.00 0.00 0.00 41 1012.2
20260506020010 66 238 0.9 3.5 0.00 0.00 0.00 39 1012.2
20260506014508 66 182 0.9 6.1 0.00 0.00 0.00 38 1012.1
20260506013007 67 225 0.9 7.0 0.00 0.00 0.00 38 1012.1
20260506011516 67 198 1.7 4.3 0.00 0.00 0.00 36 1012.1
20260506010010 69 220 0.9 4.3 0.00 0.00 0.00 34 1011.9
20260506004509 70 190 1.7 5.2 0.00 0.00 0.00 32 1011.7
20260506003016 71 234 1.7 7.0 0.00 0.00 0.00 31 1011.7
20260506001506 71 217 1.7 13.9 0.00 0.00 0.00 30 1011.7
20260506000004 72 223 3.5 7.8 0.00 0.00 0.00 29 1011.6
20260505234509 72 247 4.3 9.6 0.00 0.00 0.00 28 1011.5
20260505233017 73 306 3.5 10.4 0.00 0.00 0.00 27 1011.3
20260505231519 74 179 2.6 13.0 0.00 0.00 0.00 27 1011.4
20260505230033 74 253 5.2 12.2 0.00 0.00 0.00 26 1011.2
20260505224512 74 205 2.6 9.6 0.00 0.00 0.00 27 1011.3
20260505223009 74 209 4.3 12.2 0.00 0.00 0.00 25 1011.4
20260505221516 75 149 3.5 13.9 0.00 0.00 0.00 24 1011.5
20260505220021 76 205 4.3 13.9 0.00 0.00 0.00 25 1011.6
20260505214519 74 176 5.2 13.9 0.00 0.00 0.00 24 1011.6
20260505213012 75 236 2.6 15.6 0.00 0.00 0.00 23 1011.7
20260505211514 76 190 7.0 24.3 0.00 0.00 0.00 21 1011.7
20260505210020 77 192 7.0 20.0 0.00 0.00 0.00 20 1011.8
20260505204518 77 257 4.3 13.0 0.00 0.00 0.00 21 1011.8
20260505203032 76 198 5.2 14.8 0.00 0.00 0.00 24 1011.8
20260505201521 77 188 7.0 16.5 0.00 0.00 0.00 22 1011.9
20260505200027 76 173 4.3 15.6 0.00 0.00 0.00 23 1011.9
20260505194517 75 220 7.8 16.5 0.00 0.00 0.00 24 1012.2
20260505193015 75 177 5.2 13.9 0.00 0.00 0.00 25 1012.3
20260505191523 76 148 7.8 20.0 0.00 0.00 0.00 23 1012.8
20260505190005 75 182 6.1 18.2 0.00 0.00 0.00 25 1012.7
20260505184504 75 191 6.1 17.4 0.00 0.00 0.00 27 1012.9
20260505183003 75 206 5.2 19.1 0.00 0.00 0.00 27 1013.1
20260505181505 75 144 4.3 12.2 0.00 0.00 0.00 29 1013.1
20260505180003 74 217 6.1 15.6 0.00 0.00 0.00 29 1013.1
20260505174514 74 192 6.1 13.9 0.00 0.00 0.00 28 1013.2
20260505173025 74 206 5.2 17.4 0.00 0.00 0.00 31 1013.3
20260505171506 73 238 5.2 13.9 0.00 0.00 0.00 29 1013.5
20260505170006 73 190 7.0 16.5 0.00 0.00 0.00 32 1013.7
20260505164532 73 171 4.3 13.9 0.00 0.00 0.00 33 1013.9
20260505163012 72 245 6.1 10.4 0.00 0.00 0.00 32 1014.1
20260505161514 72 153 6.1 14.8 0.00 0.00 0.00 34 1014.3
20260505153016 69 167 3.5 8.7 0.00 0.00 0.00 37 1014.7
20260505151508 69 180 0.9 7.0 0.00 0.00 0.00 40 1014.7
20260505124512 58 205 0.9 5.2 0.00 0.00 0.00 56 1014.3
20260505123014 56 171 3.5 7.0 0.00 0.00 0.00 58 1014.2
20260505121510 54 148 0.9 2.6 0.00 0.00 0.00 61 1014.2
20260505120015 50 189 0.0 1.7 0.00 0.00 0.00 63 1014.3
20260505114531 48 140 0.0 0.9 0.00 0.00 0.00 64 1014.4
20260505113017 47 257 0.0 0.0 0.00 0.00 0.00 64 1014.2
20260505111513 46 260 0.0 1.7 0.00 0.00 0.00 66 1014.0
20260505101521 45 319 0.0 2.6 0.00 0.00 0.00 65 1013.6
20260505100009 46 319 0.0 3.5 0.00 0.00 0.00 65 1013.6
20260505094521 46 319 0.0 1.7 0.00 0.00 0.00 64 1013.6
20260505093012 46 319 0.0 0.9 0.00 0.00 0.00 64 1013.5
20260505091507 47 319 3.5 5.2 0.00 0.00 0.00 63 1013.3
20260505090044 48 275 0.0 1.7 0.00 0.00 0.00 60 1013.1
20260505084510 50 275 0.0 3.5 0.00 0.00 0.00 58 1013.1
20260505083019 50 252 0.0 0.9 0.00 0.00 0.00 59 1013.0
20260505081520 49 252 0.0 1.7 0.00 0.00 0.00 60 1012.8
20260505080012 50 252 0.0 2.6 0.00 0.00 0.00 58 1012.5
20260505074521 52 251 0.0 2.6 0.00 0.00 0.00 57 1012.1
20260505073012 50 252 0.0 1.7 0.00 0.00 0.00 61 1012.1
20260505071524 49 252 0.9 2.6 0.00 0.00 0.00 61 1012.1